Weather observations for the past three days for
Greene County Regional Airport
Imperial (Metric)
Date Time (edt) Wind (mph) Vis. (mi.) Weather Sky Cond. Temperature (ºF) Relative Humidity Wind Chill (°F) Heat Index (°F) Pressure Precipitation (in)
Air Dwpt 6 hour altimeter (in) sea level (mb) 1 hr 3 hr 6 hr
Max. Min.
25 11:55 Calm 10.00 Overcast FEW012 SCT018 OVC024 78.8 77 94% 83 30.17 0.0
25 11:35 W 5 10.00 Mostly Cloudy SCT005 SCT009 BKN013 78.8 77 94% 83 30.18 0.0
25 11:15 NW 5 5.00 Light Drizzle Fog/Mist BKN005 BKN013 OVC043 77 77 100% 78 30.18 0.0
25 10:55 Calm 10.00 Overcast OVC005 77 75.2 94% 78 30.18 0.0
25 10:35 Calm 2.50 Light Drizzle Fog/Mist OVC005 75.2 75.2 100% 73 30.17 0.0
25 10:15 SW 5 1.75 Light Drizzle Fog/Mist OVC004 75.2 75.2 100% 73 30.18 0.0
25 09:55 Calm 4.00 Light Drizzle Fog/Mist OVC003 75.2 75.2 100% 73 30.18 0.0
25 09:35 Calm 9.00 Overcast OVC004 75.2 75.2 100% 73 30.18 0.0
25 09:15 Calm 10.00 Overcast OVC004 75.2 75.2 100% 73 30.18 0.0
25 08:55 Calm 9.00 Overcast BKN004 OVC007 75.2 75.2 100% 73 30.18 0.0
25 08:35 Calm 1.75 Light Drizzle Fog/Mist SCT004 BKN009 OVC019 75.2 75.2 100% 73 30.18 0.0
25 08:15 Calm 2.50 Light Drizzle Fog/Mist SCT003 BKN010 OVC021 75.2 75.2 100% 73 30.17 0.0
25 07:55 Calm 2.00 Light Drizzle Fog/Mist BKN003 BKN013 OVC024 73.4 73.4 100% 30.17 0.0
25 07:35 Calm 1.50 Rain Fog/Mist BKN003 BKN010 OVC016 73.4 73.4 100% 30.17 0.0
25 07:15 Calm 1.75 Light Drizzle Fog/Mist BKN003 OVC007 73.4 73.4 100% 30.16 0.0
25 06:55 Calm 9.00 Overcast BKN005 OVC008 73.4 73.4 100% 30.16 0.0
25 06:35 Calm 5.00 Light Rain Fog/Mist BKN003 BKN008 OVC022 73.4 73.4 100% 30.16 0.0
25 06:15 Calm 4.00 Light Drizzle Fog/Mist OVC003 73.4 73.4 100% 30.16 0.0
25 05:55 Calm 6.00 Light Rain Fog/Mist OVC003 73.4 73.4 100% 30.16 0.0
25 05:35 Calm 8.00 Light Drizzle OVC003 73.4 73.4 100% 30.16 0.0
25 05:15 Calm 10.00 Overcast OVC004 73.4 73.4 100% 30.15 0.0
25 04:55 Calm 10.00 Overcast OVC004 73.4 73.4 100% 30.16 0.0
25 04:35 Calm 10.00 Overcast OVC004 73.4 73.4 100% 30.15 0.0
25 04:15 Calm 10.00 Overcast OVC004 73.4 73.4 100% 30.16 0.0
25 03:55 Calm 5.00 Fog/Mist OVC003 73.4 73.4 100% 30.16 0.0
25 03:35 S 5 10.00 Overcast OVC003 73.4 73.4 100% 30.16 0.0
25 03:15 Vrbl 6 5.00 Fog/Mist OVC003 73.4 73.4 100% 30.16 0.0
25 02:55 Calm 9.00 Overcast OVC003 73.4 73.4 100% 30.17 0.0
25 02:35 Calm 10.00 Overcast OVC004 73.4 73.4 100% 30.17 0.0
25 02:15 Calm 10.00 Overcast OVC004 73.4 73.4 100% 30.17 0.0
25 01:55 Calm 10.00 Overcast OVC007 73.4 73.4 100% 30.18 0.0
25 01:35 Calm 9.00 Overcast SCT004 OVC008 73.4 73.4 100% 30.18 0.0
25 01:15 Calm 9.00 Overcast OVC004 73.4 73.4 100% 30.19 0.0
25 00:55 Calm 10.00 Overcast OVC004 73.4 73.4 100% 30.19 0.0
25 00:35 Calm 10.00 Overcast BKN004 OVC110 73.4 73.4 100% 30.19 0.0
25 00:15 Calm 10.00 Mostly Cloudy BKN004 BKN110 73.4 73.4 100% 30.19 0.0
24 23:55 Calm 10.00 Mostly Cloudy BKN004 BKN011 BKN070 73.4 73.4 100% 30.2 0.0
24 23:35 E 5 8.00 Light Rain SCT003 BKN012 BKN110 73.4 73.4 100% 30.2 0.0
24 23:15 E 5 6.00 Light Rain Fog/Mist BKN002 BKN014 OVC022 73.4 73.4 100% 30.2 0.0
24 22:55 Calm 7.00 Light Rain SCT002 BKN055 BKN065 73.4 73.4 100% 30.21 0.0
24 22:35 Calm 10.00 Overcast FEW002 BKN021 OVC075 73.4 73.4 100% 30.2 0.0
24 22:15 SE 3 9.00 Overcast BKN019 OVC035 73.4 73.4 100% 30.2 0.0
24 21:55 Calm 10.00 Light Rain BKN036 BKN075 BKN100 73.4 73.4 100% 30.2 0.0
24 21:35 Calm 9.00 Light Rain BKN036 BKN050 BKN075 73.4 73.4 100% 30.2 0.0
24 21:15 NW 5 5.00 Light Rain Fog/Mist FEW032 SCT050 BKN075 73.4 73.4 100% 30.2 0.0
24 20:55 Calm 6.00 Light Rain Fog/Mist FEW060 SCT075 SCT120 73.4 73.4 100% 30.19 0.0
24 20:35 Calm 3.00 Rain Fog/Mist CLR 73.4 73.4 100% 30.19 0.0
24 20:15 N 3 4.00 Light Rain Fog/Mist SCT026 SCT034 BKN048 73.4 73.4 100% 30.2 0.0
24 19:55 Calm 4.00 Light Rain Fog/Mist FEW020 BKN027 OVC034 73.4 73.4 100% 30.19 0.0
24 19:35 Calm 3.00 Rain Fog/Mist SCT020 BKN026 BKN031 73.4 73.4 100% 30.19 0.0
24 19:15 Calm 6.00 Light Rain Fog/Mist FEW023 FEW050 FEW075 73.4 73.4 100% 30.18 0.0
24 18:55 Vrbl 5 7.00 Light Rain FEW031 FEW070 SCT120 73.4 71.6 94% 30.16 0.0
24 18:35 W 8 G 20 2.50 Thunderstorm in Vicinity Rain Fog/Mist FEW026 FEW042 BKN085 73.4 71.6 94% 30.15 0.0
24 18:15 SW 14 G 21 10.00 Thunderstorm in Vicinity FEW020 SCT036 BKN045 78.8 71.6 79% 82 30.16 0.0
24 17:55 S 10 G 20 10.00 Thunderstorm in Vicinity FEW030 SCT039 BKN049 80.6 73.4 79% 85 30.14 0.0
24 17:35 S 3 10.00 A Few Clouds FEW070 FEW095 89.6 73.4 59% 98 30.13 0.0
24 17:15 Vrbl 5 10.00 Fair CLR 89.6 73.4 59% 98 30.13 0.0
24 16:55 Vrbl 5 10.00 Thunderstorm in Vicinity CLR 89.6 73.4 59% 98 30.11 0.0
24 16:35 NW 6 10.00 A Few Clouds FEW041 89.6 71.6 55% 96 30.11 0.0
24 16:15 Calm 10.00 A Few Clouds FEW037 89.6 73.4 59% 98 30.12 0.0
24 15:55 W 8 10.00 Mostly Cloudy BKN037 BKN046 89.6 73.4 59% 98 30.13 0.0
24 15:35 W 5 10.00 Partly Cloudy SCT039 SCT044 87.8 73.4 62% 96 30.13 0.0
24 15:15 N 6 10.00 Fair CLR 87.8 73.4 62% 96 30.14 0.0
24 14:55 Vrbl 6 10.00 A Few Clouds FEW033 87.8 73.4 62% 96 30.15 0.0
24 14:35 W 8 10.00 Partly Cloudy SCT033 SCT040 87.8 75.2 66% 98 30.16 0.0
24 14:15 Calm 10.00 Mostly Cloudy BKN029 BKN034 BKN040 86 75.2 70% 95 30.18 0.0
24 13:55 Calm 10.00 Mostly Cloudy BKN029 BKN034 86 75.2 70% 95 30.18 0.0
24 13:35 Calm 10.00 Partly Cloudy SCT029 86 75.2 70% 95 30.19 0.0
24 13:15 Vrbl 5 10.00 Fair CLR 86 75.2 70% 95 30.2 0.0
24 12:55 W 6 10.00 A Few Clouds FEW023 84.2 75.2 74% 92 30.21 0.0
24 12:35 W 5 10.00 Partly Cloudy SCT023 84.2 75.2 74% 92 30.2 0.0
24 12:15 SW 3 10.00 Partly Cloudy SCT022 84.2 73.4 70% 91 30.21 0.0
24 11:55 NW 5 10.00 Fair CLR 82.4 75.2 79% 89 30.21 0.0
24 11:35 Calm 10.00 Fair CLR 82.4 73.4 74% 88 30.21 0.0
24 11:15 Calm 10.00 Partly Cloudy SCT013 80.6 75.2 84% 86 30.21 0.0
24 10:55 Vrbl 6 10.00 Mostly Cloudy BKN013 80.6 75.2 84% 86 30.21 0.0
24 10:35 W 5 10.00 Overcast OVC010 78.8 75.2 89% 82 30.21 0.0
24 10:15 Calm 10.00 Mostly Cloudy BKN008 77 75.2 94% 78 30.21 0.0
24 09:55 SW 5 10.00 Mostly Cloudy BKN007 75.2 73.4 94% 74 30.21 0.0
24 09:35 Vrbl 3 10.00 Mostly Cloudy BKN006 75.2 73.4 94% 74 30.21 0.0
24 09:15 Vrbl 3 10.00 Overcast OVC005 75.2 73.4 94% 74 30.21 0.0
24 08:55 Vrbl 3 10.00 Overcast OVC004 73.4 73.4 100% 30.21 0.0
24 08:35 S 5 9.00 Overcast OVC003 73.4 73.4 100% 30.2 0.0
24 08:15 Calm 8.00 Overcast OVC003 73.4 73.4 100% 30.2 0.0
24 07:55 Calm 0.50 Fog/Mist OVC002 71.6 71.6 100% 30.19 0.0
24 07:35 NW 5 0.15 Fog OVC002 73.4 73.4 100% 30.19 0.0
24 07:15 NW 6 0.15 Fog OVC002 73.4 73.4 100% 30.18 0.0
24 06:55 W 5 1.00 Fog/Mist OVC003 73.4 73.4 100% 30.18 0.0
24 06:35 Calm 8.00 Overcast OVC003 73.4 73.4 100% 30.18 0.0
24 06:15 Vrbl 3 1.00 Fog/Mist OVC002 73.4 73.4 100% 30.18 0.0
24 05:55 Calm 0.75 Fog/Mist OVC002 73.4 73.4 100% 30.17 0.0
24 05:35 Vrbl 5 0.50 Fog OVC002 73.4 73.4 100% 30.17 0.0
24 05:15 Calm 0.25 Fog OVC002 73.4 73.4 100% 30.16 0.0
24 04:55 S 5 0.15 Fog OVC002 73.4 73.4 100% 30.16 0.0
24 04:35 Calm 0.25 Fog OVC002 73.4 73.4 100% 30.17 0.0
24 04:15 Calm 5.00 Fog/Mist BKN002 BKN045 73.4 73.4 100% 30.16 0.0
24 03:55 Calm 10.00 Mostly Cloudy BKN002 73.4 73.4 100% 30.16 0.0
24 03:35 Calm 10.00 Mostly Cloudy BKN003 73.4 73.4 100% 30.15 0.0
24 03:15 Calm 10.00 Mostly Cloudy BKN004 73.4 73.4 100% 30.14 0.0
24 02:55 Calm 10.00 A Few Clouds FEW002 73.4 73.4 100% 30.14 0.0
24 02:35 Vrbl 3 10.00 A Few Clouds FEW002 73.4 73.4 100% 30.14 0.0
24 02:15 S 3 10.00 Fair CLR 73.4 73.4 100% 30.15 0.0
24 01:55 Calm 10.00 Fair CLR 73.4 73.4 100% 30.15 0.0
24 01:35 Calm 10.00 Fair CLR 73.4 73.4 100% 30.15 0.0
24 01:15 Calm 10.00 A Few Clouds FEW075 FEW090 73.4 73.4 100% 30.16 0.0
24 00:55 Calm 7.00 Partly Cloudy SCT070 73.4 73.4 100% 30.16 0.0
24 00:35 S 3 10.00 Light Rain SCT075 73.4 73.4 100% 30.17 0.0
24 00:15 Calm 5.00 Light Rain Fog/Mist SCT075 73.4 73.4 100% 30.17 0.0
23 23:55 Calm 10.00 Light Rain FEW055 SCT075 73.4 71.6 94% 30.17 0.0
23 23:35 W 6 G 12 10.00 Partly Cloudy FEW009 FEW048 SCT065 73.4 73.4 100% 30.17 0.0
23 23:15 NW 12 10.00 Light Rain FEW004 SCT034 BKN070 75.2 73.4 94% 74 30.16 0.0
23 22:55 W 9 10.00 Mostly Cloudy SCT035 SCT050 BKN100 75.2 73.4 94% 74 30.17 0.0
23 22:35 NW 9 10.00 Thunderstorm in Vicinity FEW042 FEW050 SCT085 75.2 75.2 100% 73 30.16 0.0
23 22:15 NW 7 G 14 10.00 Mostly Cloudy SCT042 BKN050 BKN065 75.2 75.2 100% 73 30.16 0.0
23 21:55 NW 8 10.00 Mostly Cloudy SCT050 BKN065 BKN085 75.2 75.2 100% 73 30.14 0.0
23 21:35 N 9 10.00 Thunderstorm in Vicinity SCT047 SCT060 BKN070 77 75.2 94% 78 30.13 0.0
23 21:15 N 9 8.00 Thunderstorm Light Rain FEW004 SCT055 BKN070 77 75.2 94% 78 30.12 0.0
23 20:55 W 8 1.00 Thunderstorm Rain Fog/Mist SCT005 SCT021 OVC041 78.8 77 94% 83 30.11 0.0
23 20:35 Calm 10.00 Partly Cloudy SCT041 SCT048 80.6 78.8 94% 88 30.08 0.0
23 20:15 Calm 10.00 Thunderstorm in Vicinity CLR 80.6 77 89% 87 30.09 0.0
23 19:55 Calm 10.00 Fair CLR 80.6 77 89% 87 0 0.0
23 19:35 Calm 10.00 Fair CLR 80.6 77 89% 87 30.09 0.0
23 19:15 Calm 10.00 A Few Clouds FEW049 FEW055 82.4 77 84% 91 30.09 0.0
23 18:55 Calm 10.00 A Few Clouds FEW041 82.4 77 84% 91 30.08 0.0
23 18:35 Calm 10.00 Light Rain CLR 84.2 75.2 74% 92 30.07 0.0
23 18:15 S 5 10.00 Fair CLR 86 73.4 66% 93 30.06 0.0
23 17:55 Vrbl 3 10.00 Fair CLR 87.8 73.4 62% 96 30.06 0.0
23 17:35 S 7 10.00 Fair CLR 87.8 71.6 59% 94 30.05 0.0
23 17:15 Vrbl 5 10.00 Fair CLR 87.8 73.4 62% 96 30.05 0.0
23 16:55 SW 7 10.00 Fair CLR 86 75.2 70% 95 30.06 0.0
23 16:35 Vrbl 6 10.00 Fair CLR 82.4 75.2 79% 89 30.06 0.0
23 16:15 Vrbl 5 10.00 Fair CLR 82.4 75.2 79% 89 30.07 0.0
23 15:55 Calm 10.00 Fair CLR 82.4 75.2 79% 89 30.08 0.0
23 15:35 S 7 10.00 Fair CLR 84.2 77 79% 94 30.08 0.0
23 15:15 Vrbl 6 10.00 Fair CLR 84.2 75.2 74% 92 30.08 0.0
23 14:55 S 6 10.00 Partly Cloudy FEW055 SCT070 SCT080 86 77 75% 97 30.08 0.0
23 14:35 S 7 G 13 10.00 Mostly Cloudy FEW031 FEW040 BKN055 86 75.2 70% 95 30.09 0.0
23 14:15 Vrbl 7 G 13 10.00 Partly Cloudy SCT085 87.8 75.2 66% 98 30.09 0.0
23 13:55 Vrbl 3 10.00 A Few Clouds FEW035 FEW042 FEW060 86 75.2 70% 95 30.1 0.0
23 13:35 Calm 10.00 Light Rain SCT035 SCT060 BKN075 82.4 75.2 79% 89 30.11 0.0
23 13:15 SW 3 10.00 Mostly Cloudy FEW034 SCT075 BKN085 86 73.4 66% 93 30.11 0.0
23 12:55 S 5 10.00 Overcast FEW035 BKN070 OVC090 86 73.4 66% 93 30.12 0.0
23 12:35 W 5 10.00 Mostly Cloudy FEW040 BKN075 BKN090 86 73.4 66% 93 30.12 0.0
23 12:15 S 7 10.00 Fair CLR 86 73.4 66% 93 30.12 0.0
23 11:55 Vrbl 5 10.00 A Few Clouds FEW031 FEW038 FEW044 84.2 73.4 70% 91 30.12 0.0
23 11:35 Vrbl 7 10.00 A Few Clouds FEW025 FEW042 84.2 73.4 70% 91 30.12 0.0
23 11:15 Vrbl 5 G 12 10.00 A Few Clouds FEW023 FEW037 FEW043 84.2 75.2 74% 92 30.12 0.0
23 10:55 W 6 10.00 Mostly Cloudy SCT020 BKN026 BKN036 82.4 75.2 79% 89 30.12 0.0
23 10:35 W 7 10.00 Mostly Cloudy BKN019 BKN024 BKN034 82.4 75.2 79% 89 30.12 0.0
23 10:15 W 6 10.00 Mostly Cloudy BKN018 BKN026 BKN032 82.4 75.2 79% 89 30.11 0.0
23 09:55 Calm 10.00 Mostly Cloudy FEW015 SCT020 BKN032 80.6 75.2 84% 86 30.12 0.0
23 09:35 Vrbl 5 10.00 Partly Cloudy SCT012 80.6 75.2 84% 86 30.11 0.0
23 09:15 Vrbl 5 10.00 A Few Clouds FEW012 78.8 75.2 89% 82 30.11 0.0
23 08:55 Vrbl 3 10.00 Fair CLR 78.8 75.2 89% 82 30.11 0.0
23 08:35 S 6 10.00 Fair CLR 77 75.2 94% 78 30.11 0.0
23 08:15 S 5 10.00 Fair CLR 75.2 73.4 94% 74 30.1 0.0
23 07:55 S 6 10.00 Fair CLR 73.4 73.4 100% 30.1 0.0
23 07:35 Calm 9.00 Fair CLR 73.4 73.4 100% 30.09 0.0
23 07:15 Calm 9.00 Fair CLR 73.4 73.4 100% 30.09 0.0
23 06:55 Calm 9.00 Fair CLR 73.4 73.4 100% 30.09 0.0
23 06:35 Calm 9.00 Fair CLR 73.4 73.4 100% 30.09 0.0
23 06:15 Calm 10.00 Fair CLR 73.4 71.6 94% 30.08 0.0
23 05:55 Calm 10.00 Fair CLR 73.4 73.4 100% 30.08 0.0
23 05:35 Calm 10.00 Fair CLR 73.4 73.4 100% 30.08 0.0
23 05:15 Calm 10.00 Fair CLR 75.2 73.4 94% 74 30.07 0.0
23 04:55 Calm 10.00 Fair CLR 73.4 73.4 100% 30.06 0.0
23 04:35 Calm 10.00 Fair CLR 75.2 73.4 94% 74 30.06 0.0
23 04:15 Calm 10.00 Fair CLR 73.4 73.4 100% 30.05 0.0
23 03:55 Calm 10.00 Fair CLR 75.2 73.4 94% 74 30.05 0.0
23 03:35 Calm 9.00 Fair CLR 73.4 73.4 100% 30.05 0.0
23 03:15 Calm 9.00 Fair CLR 73.4 73.4 100% 30.06 0.0
23 02:55 Calm 10.00 Fair CLR 73.4 71.6 94% 30.05 0.0
23 02:35 Calm 10.00 Fair CLR 75.2 73.4 94% 74 30.05 0.0
23 02:15 Calm 10.00 Fair CLR 75.2 73.4 94% 74 30.06 0.0
23 01:55 Calm 10.00 A Few Clouds FEW110 73.4 73.4 100% 30.06 0.0
23 01:35 Calm 10.00 Fair CLR 73.4 73.4 100% 30.06 0.0
23 01:15 Calm 10.00 Fair CLR 73.4 73.4 100% 30.06 0.0
23 00:55 S 3 10.00 Fair CLR 75.2 73.4 94% 74 30.06 0.0
23 00:35 Calm 10.00 Fair CLR 77 73.4 89% 78 30.06 0.0
23 00:15 Calm 10.00 Fair CLR 75.2 73.4 94% 74 30.05 0.0
22 23:55 Calm 10.00 A Few Clouds FEW100 75.2 73.4 94% 74 30.06 0.0
22 23:35 S 3 10.00 Partly Cloudy SCT100 75.2 73.4 94% 74 30.06 0.0
22 23:15 Calm 10.00 Fair CLR 75.2 73.4 94% 74 30.06 0.0
22 22:55 SE 3 10.00 Fair CLR 77 73.4 89% 78 30.06 0.0
22 22:35 Calm 6.00 Fog/Mist FEW120 75.2 73.4 94% 74 30.06 0.0
22 22:15 Calm 10.00 Fair CLR 77 73.4 89% 78 30.05 0.0
22 21:55 Calm 10.00 Fair CLR 77 73.4 89% 78 30.04 0.0
22 21:35 Calm 10.00 Fair CLR 78.8 73.4 84% 82 30.04 0.0
22 21:15 Calm 10.00 Fair CLR 78.8 73.4 84% 82 30.03 0.0
22 20:55 S 3 10.00 Fair CLR 78.8 73.4 84% 82 30.02 0.0
22 20:35 Calm 10.00 Fair CLR 80.6 71.6 74% 85 30.02 0.0
22 20:15 Calm 10.00 Fair CLR 80.6 73.4 79% 85 30.02 0.0
22 19:55 S 5 10.00 Fair CLR 82.4 73.4 74% 88 30.01 0.0
22 19:35 S 5 10.00 Fair CLR 84.2 71.6 66% 90 30 0.0
22 19:15 Vrbl 3 10.00 Fair CLR 86 71.6 62% 92 30 0.0
22 18:55 S 7 10.00 Fair CLR 86 71.6 62% 92 30 0.0
22 18:35 Calm 10.00 Fair CLR 86 71.6 62% 92 30 0.0
22 18:15 Vrbl 6 10.00 A Few Clouds FEW036 84.2 71.6 66% 90 30 0.0
22 17:55 S 8 10.00 A Few Clouds FEW034 86 71.6 62% 92 30 0.0
22 17:35 S 8 10.00 A Few Clouds FEW033 86 73.4 66% 93 30 0.0
22 17:15 Vrbl 6 G 12 10.00 A Few Clouds FEW033 86 73.4 66% 93 30.01 0.0
22 16:55 S 8 10.00 Partly Cloudy FEW027 SCT034 SCT041 86 71.6 62% 92 30.01 0.0
22 16:35 SE 7 10.00 A Few Clouds FEW027 FEW032 86 73.4 66% 93 30.01 0.0
22 16:15 S 7 10.00 Fair CLR 84.2 73.4 70% 91 30.01 0.0
22 15:55 Vrbl 5 10.00 Partly Cloudy FEW026 SCT035 84.2 73.4 70% 91 30.03 0.0
22 15:35 Calm 10.00 Mostly Cloudy SCT027 BKN035 84.2 75.2 74% 92 30.04 0.0
22 15:15 Vrbl 3 10.00 Mostly Cloudy BKN026 BKN032 82.4 73.4 74% 88 30.04 0.0
22 14:55 Vrbl 3 10.00 A Few Clouds FEW025 FEW030 84.2 73.4 70% 91 30.05 0.0
22 14:35 SW 5 10.00 Partly Cloudy SCT025 SCT030 82.4 73.4 74% 88 30.06 0.0
22 14:15 SW 6 10.00 Partly Cloudy SCT023 82.4 73.4 74% 88 30.06 0.0
22 13:55 Vrbl 3 10.00 Partly Cloudy SCT022 SCT027 82.4 73.4 74% 88 30.06 0.0
22 13:35 SW 6 10.00 Partly Cloudy SCT021 82.4 73.4 74% 88 30.07 0.0
22 13:15 Vrbl 5 10.00 Partly Cloudy SCT020 80.6 73.4 79% 85 30.07 0.0
22 12:55 Calm 10.00 Partly Cloudy SCT017 80.6 73.4 79% 85 30.08 0.0
22 12:35 Calm 10.00 Mostly Cloudy BKN017 78.8 73.4 84% 82 30.08 0.0
22 12:15 Calm 10.00 Mostly Cloudy BKN017 78.8 73.4 84% 82 30.08 0.0
Date Time (edt) Wind (mph) Vis. (mi.) Weather Sky Cond. Air Dwpt Max. Min. Relative Humidity Wind Chill (°F) Heat Index (°F) altimeter (in) sea level (mb) 1 hr 3 hr 6 hr
6 hour
Temperature (ºF) Pressure Precipitation (in)